Regional Weather Roundup
Issued by NWS Cleveland, OH

Home | Current Version | Previous Version | Graphics & Text | Print | Product List | Glossary On
Versions: 1 2 3 4 5 6 7 8 9 10 11 12 13 14 15 16 17 18 19 20 21 22 23 24 25 26 27 28 29 30 31 32 33 34 35 36 37 38 39 40 41 42 43 44 45 46 47 48 49 50
000
ASUS41 KCLE 311900
RWRCLE
OHIO REGIONAL WEATHER ROUNDUP
NATIONAL WEATHER SERVICE WILMINGTON, OH
300 PM EDT THU JUL 31 2014

NOTE: "FAIR" INDICATES FEW OR NO CLOUDS BELOW 12,000 FEET WITH NO
SIGNIFICANT WEATHER AND/OR OBSTRUCTIONS TO VISIBILITY.

OHZ001>008-015>018-024>027-034-035-043-044-312000-
   NORTHWEST OHIO

CITY           SKY/WX    TMP DP  RH WIND       PRES   REMARKS
DEFIANCE       MOSUNNY   81  55  40 SW8       30.05S
FINDLAY        MOSUNNY   81  57  43 W14       30.05F
TOLEDO EXPRESS PTSUNNY   80  53  39 W12G17    30.04F
TOLEDO METCALF MOSUNNY   80  52  37 SW12G18   30.05F
LIMA           MOSUNNY   80  59  48 SW13      30.08S
$$

OHZ009>014-019>023-028>033-038-089-312000-
   NORTHEAST OHIO

CITY           SKY/WX    TMP DP  RH WIND       PRES   REMARKS
CLE-HOPKINS    SUNNY     75  51  43 W6        30.09S
CLE-LAKEFRONT  SUNNY     73  55  53 NW8       30.06S
CUY CO. ARPT   SUNNY     77  50  38 NW9       30.09S
LORAIN-ELYRIA  SUNNY     79  54  41 NW8       30.08S
ASHTABULA      SUNNY     74  50  42 W8        30.09R
AKRON-CANTON   MOSUNNY   77  55  46 NW7       30.09S
WOOSTER        NOT AVBL
MANSFIELD      MOSUNNY   78  57  48 SW10G16   30.10S
YOUNGSTOWN     MOSUNNY   76  53  44 W8        30.09R
$$

OHZ042-051>053-060>062-070>072-077>081-312000-
  SOUTHWEST OHIO

CITY           SKY/WX    TMP DP  RH WIND       PRES   REMARKS
CINC-COVINGTON MOSUNNY   80  58  46 W6        30.10S
CINC-LUNKEN    MOSUNNY   82  58  43 W7        30.09S
HAMILTON       MOSUNNY   82  60  47 VRB3      30.10S
DAYTON         NOT AVBL
WRIGHT-PAT AFB NOT AVBL
DAYTON GENERAL MOSUNNY   80  59  48 SW5       30.09S
WILMINGTON     PTSUNNY   79  58  48 SW7       30.10S
$$

OHZ036-037-039>041-045>050-054>059-063>069-073>076-082>088-312000-
  CENTRAL AND SOUTHEAST OHIO

CITY           SKY/WX    TMP DP  RH WIND       PRES   REMARKS
COLUMBUS       MOSUNNY   82  56  40 W12       30.08S
OSU AIRPORT    MOSUNNY   79  58  48 SW8       30.09S
BOLTON FIELD   MOSUNNY   79  63  57 W6        30.10S
RICKENBACK AFB NOT AVBL
NEWARK         MOSUNNY   78  61  55 W7        30.09S
MARION         MOSUNNY   78  55  44 W12       30.09S
LANCASTER      MOSUNNY   78  62  57 W8        30.10S
ZANESVILLE     MOSUNNY   78  58  49 W8        30.10S
NEW PHILLY     SUNNY     76  62  62 VRB6      30.10R
$$


USA.gov is the U.S. government's official web portal to all federal, state and local government web resources and services.